Lid_Strength_Index
7 7 8 8 8 8 7 8 8 8 8 8 8 8 8 9 9 11 11 11 11 11 11 10 10 9 9 9 9 9 9 9 10 9 9 8 8 8 6 6 4 5 4
9 9 8 9 10 8 9 9 9 9 8 8 8 9 9 10 10 11 11 10 10 10 9 9 9 7 9 8 8 9 9 9 10 10 9 9 9 8 8 8 5 4 4
9 9 9 10 9 11 10 10 9 9 9 9 9 10 10 10 10 9 9 9 9 9 9 9 8 8 8 8 9 9 9 8 9 11 10 9 9 9 8 7 7 6 4
9 9 10 11 10 10 10 10 9 10 11 11 11 10 9 9 8 8 8 8 8 8 7 7 7 7 9 9 9 9 9 9 9 9 9 9 8 7 8 8 7 7 6
10 10 10 10 10 10 10 10 11 11 10 10 10 9 8 8 6 7 7 7 8 7 6 7 7 6 4 5 6 7 7 7 8 8 7 7 7 7 7 7 7 6 6
10 10 9 9 9 10 10 10 10 10 9 9 8 8 7 5 3 2 3 7 6 5 6 8 8 6 6 4 4 4 4 6 6 6 7 7 6 6 6 6 6 7 8
10 9 10 10 10 10 10 10 10 10 10 9 8 7 7 7 2 2 2 5 6 9 9 9 9 8 7 8 6 4 4 3 3 5 6 7 7 6 6 7 6 7 7
11 11 11 10 10 10 10 10 10 10 10 9 7 7 7 6 2 2 3 8 9 9 8 8 8 8 8 7 7 7 6 5 6 6 6 6 6 6 6 6 6 6 5
11 11 10 10 10 10 10 10 10 10 9 8 7 7 8 7 3 4 6 9 8 8 8 8 8 8 5 4 6 6 6 5 4 2 2 2 2 2 2 4 5 6 7
11 10 10 10 10 10 10 10 10 10 9 8 8 8 6 10 6 5 7 9 10 8 8 8 6 6 4 4 5 6 7 6 6 5 5 5 4 4 3 4 5 6 6
10 9 10 10 10 10 10 11 11 11 10 11 10 11 11 9 10 6 6 8 9 9 9 8 7 5 4 4 3 5 6 5 5 5 6 6 6 5 5 5 5 6 7
10 10 10 11 9 9 11 11 11 11 12 13 12 12 11 11 8 7 7 7 7 9 9 8 8 5 4 4 5 5 5 5 7 8 9 9 8 8 6 5 4 4 4
10 11 11 10 10 10 11 12 12 13 13 13 12 13 12 11 11 8 8 8 7 9 9 7 6 6 5 7 6 6 6 8 9 10 11 9 8 7 6 6 5 5 5
12 12 11 10 10 11 11 12 13 13 13 12 12 12 11 11 10 10 10 9 8 8 8 9 8 7 7 8 8 8 9 9 9 9 8 7 8 9 8 7 6 6 6
12 12 11 10 12 12 12 12 12 12 10 11 11 11 11 12 11 9 9 9 9 9 8 9 11 11 11 10 10 9 9 9 10 10 9 8 8 8 7 7 7 7 8
12 11 10 11 12 13 13 13 9 9 9 9 9 10 10 9 8 8 8 8 8 7 10 12 12 12 11 11 10 10 9 9 10 9 9 9 9 8 8 7 8 8 9
13 11 12 12 13 13 13 14 15 12 10 10 10 10 9 9 9 9 8 8 8 9 13 12 12 12 11 11 10 10 10 10 10 9 9 9 9 9 8 8 8 8 8
12 9 13 13 13 14 14 14 14 14 13 13 11 11 10 10 10 9 9 10 13 12 13 12 12 11 11 11 11 10 10 10 10 9 9 9 9 9 8 8 8 9 9
12 12 12 13 13 12 13 14 12 13 14 14 14 12 11 10 10 10 10 13 13 13 12 11 11 11 11 10 10 10 9 10 10 8 8 8 8 8 8 8 8 7 7
13 9 9 13 13 13 13 12 13 14 14 14 14 14 13 12 13 14 13 13 13 12 12 11 10 10 10 10 10 10 10 10 10 9 9 8 8 8 9 9 8 8 8
13 12 9 12 13 13 13 15 14 14 14 14 14 13 10 12 14 14 13 13 12 12 11 11 10 10 9 9 10 10 10 10 10 9 8 8 8 8 8 8 8 8 7
14 13 12 12 12 13 14 13 14 14 14 14 14 14 11 13 14 13 13 12 11 11 10 10 10 9 9 9 9 9 10 10 10 9 8 8 8 8 8 8 8 8 8
14 13 12 12 12 12 14 14 15 14 14 14 14 14 14 13 13 13 12 12 11 10 10 9 9 9 8 8 8 8 9 10 9 9 8 8 8 8 8 8 8 8 9
13 13 12 12 12 13 15 15 14 13 13 13 13 13 13 13 12 12 12 11 10 9 8 8 8 9 9 8 8 8 8 8 8 8 7 8 8 8 8 8 8 8 8
13 13 12 13 13 13 13 13 13 13 13 13 13 13 13 12 12 12 11 10 9 9 8 8 8 8 9 9 8 8 8 8 8 8 7 7 8 8 8 8 8 8 8
14 13 12 12 13 12 11 11 12 12 13 13 13 13 12 12 11 11 10 9 9 8 8 8 8 8 9 8 8 8 8 8 8 6 6 7 7 7 7 8 8 7 7